Theta_e
316 316 316 316 316 316 315 315 315 315 316 316 316 316 317 317 317 317 317 317 317 317 317 318 318 318 319 319 319 318 317 310 310 309 307 309 316 328 326 326 329 329 322 301 300 300 300 302 302 305 301 298 295 296 296 299 299 299 292 290 289 289 290 294 295 296 298 297 299 299 300 299 298 301 303 306 304 304 314 316 320 323 328 331 332 336 335 335
316 316 316 316 316 316 315 315 315 316 316 316 316 317 317 317 317 317 318 317 317 317 318 318 318 318 318 318 318 318 314 311 309 309 307 317 318 323 327 325 328 324 313 300 299 299 299 300 301 303 298 294 296 293 298 293 300 293 291 290 288 291 293 297 297 298 297 297 299 300 301 299 299 299 302 300 300 301 307 314 317 324 329 332 334 333 333 333
316 316 316 315 315 315 315 315 315 315 316 316 316 316 316 317 317 317 317 317 317 317 317 318 318 318 318 318 318 317 313 310 308 304 309 325 326 327 328 330 330 326 301 300 302 302 300 300 301 301 296 293 294 292 296 292 299 293 291 287 288 294 295 297 299 299 300 300 298 298 299 297 298 299 303 300 298 301 304 308 312 323 325 328 330 332 331 332
316 316 316 316 316 316 316 315 315 315 315 316 316 316 316 317 317 317 317 317 317 317 317 318 318 318 318 318 318 315 311 308 301 305 304 325 328 329 328 328 328 324 310 305 304 304 303 303 302 301 294 293 292 296 292 293 294 291 292 288 290 294 294 297 299 299 300 300 298 298 297 297 298 299 301 300 298 299 304 312 314 322 326 328 330 331 331 330
315 316 316 316 316 316 316 315 315 315 315 315 316 316 316 316 317 317 317 317 317 317 318 318 318 318 318 318 317 312 308 293 297 304 305 327 330 329 329 329 331 319 310 307 306 304 303 301 301 298 294 289 292 293 290 293 295 293 290 292 293 294 294 297 299 300 299 299 296 295 294 296 299 300 298 300 296 295 300 309 313 326 329 329 329 330 331 329
315 315 315 315 315 315 315 314 315 314 315 315 316 316 316 316 317 317 317 317 317 317 317 318 318 318 318 316 314 311 301 284 302 305 324 328 328 332 331 331 333 324 310 304 303 303 302 300 298 293 290 291 290 290 290 293 295 287 291 292 293 294 293 297 299 298 297 296 295 294 296 297 296 295 298 300 299 301 305 306 313 325 328 330 332 331 329 329
316 316 316 316 315 315 315 315 315 314 314 315 315 315 315 316 317 317 317 317 317 317 318 318 318 318 318 316 311 309 299 300 306 308 326 331 329 331 332 330 332 323 309 305 305 302 301 295 296 293 293 291 290 291 293 294 295 292 289 292 294 294 293 296 297 297 296 295 295 296 296 295 294 293 300 298 301 303 306 306 310 328 327 329 326 328 329 329
315 315 315 315 315 315 315 315 314 314 314 315 315 315 315 316 316 317 317 317 317 317 318 318 318 318 317 312 307 300 301 301 308 315 328 327 328 327 331 322 313 307 305 303 303 302 301 295 294 296 290 291 291 292 294 292 293 291 290 292 293 294 294 294 293 293 294 293 294 294 294 294 294 294 297 296 299 303 304 311 321 326 328 328 327 327 327 329
315 315 315 315 315 315 315 314 314 314 314 314 315 315 315 316 316 316 317 317 317 318 318 319 318 318 317 312 307 300 300 309 311 314 325 318 320 314 315 308 309 306 304 305 305 304 300 294 296 297 290 291 294 292 292 291 286 292 292 293 293 293 294 293 294 294 294 295 296 294 292 294 295 296 295 298 300 302 303 309 320 325 325 326 326 327 326 326
314 315 315 315 315 315 314 314 314 314 314 314 315 315 315 315 315 316 316 317 317 318 319 320 319 318 312 309 301 295 305 311 311 315 316 314 312 309 311 309 308 306 305 305 304 301 298 296 297 298 296 294 294 292 293 292 290 294 292 292 292 292 292 294 292 293 293 294 294 293 292 293 296 295 291 299 300 301 301 302 314 323 324 325 323 325 325 325
314 314 315 315 315 314 314 314 314 314 314 314 314 314 315 315 315 315 316 316 317 318 320 320 319 315 309 309 298 294 310 310 310 311 313 315 308 305 305 307 307 306 305 303 300 302 301 300 299 299 295 291 294 292 293 292 295 294 293 292 291 292 293 293 293 293 293 293 294 293 293 293 294 293 292 296 300 302 299 299 302 317 322 322 322 324 326 326
314 314 314 315 314 314 314 314 314 314 314 314 313 313 314 314 315 315 316 316 317 318 319 318 318 314 310 306 300 300 312 309 311 308 311 310 307 306 307 307 307 307 305 300 300 301 302 301 300 297 291 296 289 293 291 296 295 293 292 289 290 291 291 292 291 293 293 292 295 295 291 291 291 290 293 296 299 299 298 299 299 308 319 321 320 322 324 325
314 314 314 314 314 314 314 314 314 314 314 313 313 313 313 314 314 315 316 316 317 318 319 319 316 312 307 296 305 314 317 310 310 310 310 310 309 307 308 307 307 307 303 302 300 303 302 301 300 296 297 296 293 288 294 296 294 293 292 288 288 288 287 292 293 293 291 292 295 294 282 284 289 292 293 295 299 299 298 298 298 300 314 319 320 322 321 323
313 314 314 314 314 314 314 314 314 314 313 313 313 313 313 313 314 315 315 316 317 318 320 318 314 310 305 299 307 313 312 308 310 309 309 311 306 305 305 306 306 304 303 302 302 300 302 300 301 299 300 296 291 297 295 293 293 287 290 288 284 282 281 291 293 292 291 294 293 293 284 285 288 291 292 294 297 297 295 296 296 297 298 300 310 321 320 323
313 313 314 314 313 313 314 314 314 313 313 312 312 312 312 312 313 314 315 316 317 319 318 317 313 305 299 302 312 315 334 319 306 306 309 306 304 304 303 305 305 306 305 303 303 303 303 302 300 296 292 297 296 293 287 288 287 287 284 280 281 283 283 290 292 292 289 293 293 291 284 286 290 291 293 294 295 295 294 295 295 297 297 297 305 319 319 322
313 313 313 313 313 313 313 313 313 313 312 312 312 312 312 312 313 315 316 316 317 317 315 310 311 306 301 297 307 321 310 304 305 307 307 308 305 303 305 303 306 305 304 303 304 305 302 301 295 292 294 295 292 286 283 284 283 284 285 281 282 282 282 286 290 290 293 293 293 292 285 286 288 292 293 295 295 294 293 293 293 294 296 296 302 313 318 320
312 313 313 313 313 313 313 313 313 312 312 311 311 311 311 312 313 315 316 316 315 316 310 304 308 309 296 307 314 308 303 305 308 308 308 307 306 305 307 304 302 302 303 303 303 302 301 298 297 294 295 290 288 287 281 277 279 280 283 282 284 283 283 282 288 291 291 290 287 290 288 287 287 289 292 295 295 294 292 293 294 294 295 297 298 308 316 321
312 312 312 312 312 312 313 313 313 312 311 311 310 310 308 311 313 313 310 313 313 312 312 315 308 300 297 308 300 303 305 305 307 306 306 307 306 305 304 303 302 301 302 300 299 297 299 293 294 289 287 288 286 282 281 276 281 281 281 282 283 284 284 285 284 288 291 289 288 287 287 288 289 289 291 293 294 293 293 294 295 295 295 296 299 301 310 315
312 312 312 312 312 312 312 312 312 312 310 310 309 310 312 312 312 308 307 308 304 300 296 298 298 288 289 299 306 305 305 306 307 306 305 307 310 307 306 306 304 301 296 294 294 296 296 291 290 284 283 285 286 286 283 287 288 286 287 286 285 283 283 283 288 291 290 287 285 286 285 287 289 291 291 292 294 292 294 294 294 295 295 297 298 299 304 312
311 312 312 312 312 312 312 312 312 311 310 307 306 307 306 300 299 300 304 305 300 300 301 303 305 304 304 302 301 305 308 306 302 303 306 309 306 303 302 303 300 299 295 291 293 295 296 287 286 284 285 289 291 292 291 291 291 290 289 288 285 284 285 287 289 292 291 288 285 286 285 285 287 288 290 290 292 292 293 293 293 294 294 296 295 298 301 306
311 312 312 312 312 312 311 311 311 310 309 307 305 306 301 300 295 293 300 303 305 305 303 304 305 304 303 304 305 303 299 301 303 303 305 309 304 301 299 299 294 292 292 297 294 297 294 287 286 290 291 293 292 293 293 292 292 290 288 286 284 286 283 288 289 291 292 289 285 286 287 287 287 288 288 290 291 291 292 292 293 294 295 295 295 296 299 302
311 311 312 312 312 311 311 310 310 310 309 306 307 305 307 305 307 307 304 296 302 306 305 305 306 304 308 308 307 304 302 298 299 303 307 307 303 296 297 297 296 291 292 294 290 287 286 286 290 294 295 296 294 294 293 291 290 290 287 285 284 284 286 288 289 291 292 291 285 287 286 286 288 288 289 290 291 291 292 293 294 294 294 295 296 296 296 299
311 311 311 311 311 311 310 309 309 308 306 306 307 309 308 309 312 311 307 299 297 304 304 304 302 303 301 304 305 305 299 296 295 301 304 305 300 298 297 292 292 294 295 295 290 286 284 284 292 295 295 294 292 293 292 291 290 287 286 283 282 286 284 281 288 290 291 290 287 287 285 286 288 288 289 290 292 293 294 294 294 295 294 294 296 297 297 296
310 310 311 311 311 310 309 308 308 307 305 306 306 306 310 311 311 310 303 294 294 301 304 305 304 301 298 301 305 302 297 299 299 298 309 301 296 300 296 295 292 291 289 293 291 288 288 292 296 296 294 293 291 292 291 288 285 287 289 286 284 286 286 285 285 288 289 291 289 287 285 283 285 286 289 295 298 300 302 307 309 308 301 297 297 297 298 300
310 310 310 311 310 310 308 307 307 306 307 307 307 311 310 314 313 309 301 295 296 298 306 304 304 304 304 309 307 298 300 300 299 303 306 302 300 297 296 299 294 289 291 294 293 291 290 295 296 294 294 293 292 289 289 289 284 284 287 288 288 287 287 288 288 287 282 282 286 287 277 275 282 286 291 295 299 300 303 304 305 309 311 299 297 296 298 306
309 310 310 310 310 309 308 308 307 305 305 306 307 310 313 313 313 310 298 289 284 294 302 296 304 298 308 302 305 300 300 296 302 303 307 305 305 300 298 292 295 288 294 293 290 290 290 295 295 293 292 291 292 289 291 290 284 284 284 291 289 289 288 288 287 286 278 278 285 289 279 275 280 285 291 294 297 298 301 301 303 307 312 314 312 304 302 312
309 309 309 309 309 308 304 301 306 306 303 305 312 312 311 313 314 309 298 285 282 297 294 299 300 300 304 302 301 299 286 289 302 305 305 310 301 305 294 291 295 299 299 296 287 283 297 296 293 293 292 290 289 287 290 288 283 283 288 290 290 288 288 288 288 286 282 286 288 287 283 278 277 282 290 294 295 295 297 299 303 306 307 313 315 317 319 322
309 309 309 309 308 307 303 304 303 305 305 308 314 313 312 312 312 306 292 279 278 299 296 297 302 308 304 302 302 296 295 300 296 306 304 306 303 299 295 291 293 293 296 293 283 288 294 292 292 291 291 289 286 288 291 291 287 285 290 291 290 290 291 289 287 285 284 284 279 281 286 278 278 283 291 294 292 292 294 296 301 306 307 310 312 314 316 319
309 308 309 308 308 308 308 304 304 305 311 312 313 313 315 312 306 296 284 278 293 295 307 299 308 305 303 303 299 299 298 303 296 300 304 305 306 299 291 295 296 295 296 293 286 290 296 294 293 294 290 286 291 293 291 292 289 290 292 293 292 292 292 290 286 284 283 280 274 280 285 278 275 283 289 292 291 291 294 297 297 304 307 309 309 311 313 315
308 308 308 308 306 307 303 304 303 309 312 313 314 314 313 305 296 287 281 277 298 288 300 300 298 295 299 295 297 299 297 300 301 302 304 301 301 302 301 304 299 295 293 295 292 294 296 303 303 295 290 294 292 293 294 292 292 294 292 292 287 287 286 287 285 283 280 276 276 282 286 281 276 283 288 287 288 294 294 298 299 302 306 309 310 311 311 313
307 307 307 308 301 306 307 302 307 312 315 315 314 311 304 297 287 280 279 287 298 295 299 296 294 299 295 293 289 296 297 297 300 300 295 301 298 300 298 293 296 289 287 288 287 293 295 295 294 295 300 297 295 293 296 295 293 292 289 285 281 281 284 279 278 280 276 271 277 285 287 286 277 281 290 295 300 297 295 296 298 300 304 306 309 310 312 313
307 307 307 306 306 308 304 304 311 313 312 314 312 304 295 283 289 280 281 299 285 289 291 290 296 295 295 297 295 294 293 297 300 298 294 294 290 289 291 286 289 281 277 280 281 289 287 290 293 296 302 296 292 290 291 293 290 288 285 283 279 276 275 272 275 270 270 273 279 285 287 282 283 288 293 294 297 300 300 300 301 302 304 307 308 308 310 312
306 306 307 307 307 305 306 309 311 310 313 313 308 300 288 281 278 282 284 290 282 292 290 297 293 293 294 293 293 297 298 293 298 298 297 296 291 293 297 294 295 289 281 282 283 283 282 290 294 295 296 299 293 285 285 285 285 286 283 277 275 270 269 267 271 275 275 281 286 285 288 281 287 292 297 295 298 302 302 303 305 304 305 306 307 308 309 310
306 306 303 308 307 308 310 312 312 314 313 309 301 293 284 282 282 297 288 288 290 297 296 293 293 294 295 291 294 296 289 296 297 295 297 292 290 287 290 295 296 292 289 285 282 282 275 278 287 293 288 297 294 292 291 287 285 284 286 281 278 276 275 269 271 269 273 277 282 288 282 279 281 286 298 300 302 303 305 305 306 307 307 306 307 308 308 308
306 305 305 307 309 310 310 311 313 314 309 303 296 287 283 283 285 284 285 288 291 293 292 296 293 291 290 294 298 297 295 288 297 295 292 290 286 287 288 290 296 295 291 281 284 283 286 283 289 297 297 296 293 297 296 291 285 287 288 286 282 280 280 276 279 278 279 278 277 280 280 286 286 297 300 303 303 303 305 306 306 305 305 305 305 306 306 307
305 306 310 311 314 317 314 314 314 313 306 299 287 283 283 286 282 289 286 296 293 289 290 290 290 285 285 288 297 296 299 291 295 294 291 292 293 290 294 295 294 296 289 284 285 279 284 281 293 296 298 295 295 297 296 294 279 284 286 280 285 288 285 278 279 283 281 279 276 281 284 288 295 297 295 300 300 300 302 304 304 302 302 303 302 304 305 306
303 307 309 315 318 319 318 317 317 310 302 295 284 283 288 294 296 293 296 294 293 293 286 279 284 284 283 284 288 293 294 296 294 290 283 294 288 295 295 295 298 297 296 289 285 289 281 281 292 293 292 297 299 298 296 296 295 285 281 283 290 293 289 281 274 276 276 272 275 281 280 282 285 282 295 296 296 299 300 301 302 301 302 301 301 302 303 305
303 304 309 311 315 319 320 318 314 305 300 291 284 296 300 294 298 297 297 295 293 293 284 280 284 290 285 284 285 290 293 288 288 289 285 291 284 298 297 295 298 297 298 296 287 289 289 280 286 294 294 297 299 295 291 295 297 288 285 294 283 275 277 279 278 272 272 273 274 281 284 285 286 284 290 291 293 296 299 300 299 299 299 300 301 302 303 305
303 304 306 314 315 318 317 315 308 300 294 287 283 288 299 297 297 298 300 296 296 291 285 290 285 289 288 282 289 291 292 284 289 286 282 289 283 294 295 297 294 299 298 298 290 291 291 281 282 293 295 296 294 290 280 285 293 295 295 289 293 283 279 276 277 278 277 271 271 276 282 280 288 289 292 292 295 297 297 297 297 298 299 299 300 301 302 303
304 302 300 315 314 315 313 310 303 298 292 287 287 290 299 298 299 299 297 298 293 290 290 289 291 282 288 290 291 286 290 292 288 287 288 290 290 300 296 300 294 297 299 300 294 296 286 289 278 285 296 295 284 288 284 285 283 286 286 283 285 285 289 285 284 281 275 275 270 271 271 281 289 294 295 295 297 297 296 296 297 297 299 300 300 301 301 302
304 301 300 314 314 314 311 304 296 293 291 292 296 296 298 296 301 300 301 301 296 299 293 292 289 284 289 285 288 293 289 288 290 285 291 291 291 283 295 297 297 296 298 295 294 293 284 284 281 283 287 286 288 295 292 291 290 287 285 283 284 282 277 275 275 286 285 278 275 274 274 284 292 298 297 296 297 296 296 296 297 298 298 298 300 301 301 301
301 297 301 315 315 311 302 294 294 296 294 293 291 298 296 306 299 300 299 299 297 294 299 295 294 291 290 290 290 290 289 286 290 287 286 287 293 291 293 299 298 299 291 287 290 297 291 288 285 282 286 289 292 296 297 294 293 291 288 285 288 284 280 274 272 277 282 280 285 281 280 282 295 298 299 298 298 296 296 296 296 297 298 298 299 300 301 301
303 300 312 316 314 309 299 291 293 290 294 295 302 304 304 301 296 297 296 299 295 297 294 293 293 292 294 292 293 290 291 286 292 288 294 294 294 297 299 299 299 297 294 288 295 295 301 285 283 285 292 294 296 298 297 294 291 287 288 289 288 283 286 280 278 278 279 281 278 277 280 283 294 298 296 296 296 296 295 295 296 297 297 299 299 300 300 300
299 299 303 313 314 308 297 287 287 287 294 299 301 301 305 300 296 294 294 295 293 293 292 292 295 298 294 296 293 290 292 281 294 292 289 296 292 300 301 301 298 293 292 290 287 295 285 286 285 281 282 284 285 289 288 291 289 284 283 286 289 289 290 288 287 284 279 281 281 278 276 282 292 296 296 294 294 294 295 296 297 296 297 298 299 300 300 301
297 302 302 306 311 304 295 294 292 287 292 294 296 296 298 296 298 297 295 294 297 293 292 292 295 296 295 295 293 294 294 290 286 295 295 295 293 300 299 298 298 294 299 302 303 298 289 286 282 275 273 271 270 272 275 277 280 281 284 286 289 288 287 284 281 278 278 280 282 280 281 286 291 292 292 292 292 293 294 295 297 298 298 299 299 300 300 301
297 289 293 297 303 304 301 303 301 296 291 293 289 294 298 293 299 303 300 296 296 296 293 295 297 296 293 292 289 290 292 296 290 288 293 290 293 297 299 300 299 298 302 304 304 297 288 289 284 281 277 274 276 278 282 285 278 277 282 284 286 287 287 284 281 279 278 279 278 281 284 285 286 287 289 290 290 291 292 294 295 296 298 299 299 299 300 300
300 293 289 287 294 296 296 297 299 297 291 295 289 297 295 297 299 297 301 293 298 296 295 293 295 292 291 290 289 288 291 292 295 293 292 292 293 296 300 301 300 304 305 303 302 294 287 284 287 286 284 283 284 284 286 287 280 283 282 284 287 286 284 283 277 278 283 281 278 285 286 282 283 286 287 288 289 290 291 293 295 297 298 297 298 299 301 300
291 294 297 297 292 285 287 287 299 297 298 296 292 298 296 297 297 292 296 299 298 297 289 291 296 296 293 290 288 283 286 286 289 287 293 294 294 295 294 299 297 303 302 297 300 290 284 281 288 287 286 288 288 288 290 288 285 285 284 283 284 285 284 281 281 283 282 277 276 283 283 281 283 285 288 289 290 290 292 293 296 298 298 297 297 297 298 298
300 297 299 301 290 293 295 297 301 299 296 297 292 296 295 296 295 295 292 293 296 295 294 282 292 296 296 294 288 284 286 281 282 288 291 289 291 290 288 292 299 303 296 295 294 292 286 283 287 287 285 287 288 290 292 289 286 284 285 285 285 285 284 283 283 284 284 282 283 283 282 283 284 286 287 289 291 291 292 294 295 296 297 297 297 296 297 298
296 293 290 296 298 295 297 298 299 298 294 299 290 295 296 294 292 295 296 293 287 291 296 291 294 295 295 296 292 287 289 288 288 284 291 293 289 289 290 291 288 292 293 291 293 292 286 281 291 285 282 284 287 289 291 292 289 283 286 286 285 284 285 285 284 285 285 284 283 283 282 281 286 288 289 291 292 293 293 293 293 295 297 297 296 296 296 297
301 303 300 296 291 293 296 297 295 294 290 290 291 295 299 299 295 295 294 297 293 292 294 292 294 294 295 293 292 292 295 294 294 294 294 294 288 292 292 291 294 290 292 290 290 291 286 282 288 284 283 282 287 288 289 291 291 288 285 285 285 283 282 285 282 285 280 281 282 282 280 281 284 290 292 293 292 292 292 292 294 296 297 298 296 295 296 296
303 303 303 296 290 297 295 296 295 292 287 296 297 298 298 298 301 297 286 295 299 299 297 296 295 291 292 292 291 293 297 297 297 298 298 298 298 297 296 297 296 291 289 289 290 288 285 284 282 280 281 280 286 289 289 289 287 280 278 282 285 286 286 288 289 290 288 285 281 280 281 285 288 293 291 292 292 292 292 294 295 297 297 297 297 297 297 297
Wind_Speed
17 17 17 17 17 17 16 16 16 15 15 15 15 16 16 16 16 16 15 16 16 17 16 16 15 15 15 16 17 15 14 4 5 3 3 5 2 2 3 1 1 2 2 2 5 7 7 8 7 8 4 0 2 1 3 2 2 1 3 3 7 2 4 3 5 3 2 6 8 5 5 11 12 9 9 10 9 10 4 1 2 7 10 7 10 20 17 18
18 17 18 18 17 17 17 16 16 15 16 16 16 16 16 16 16 16 15 15 16 16 16 15 14 14 14 14 15 14 11 2 4 4 10 4 4 3 4 1 2 3 2 3 2 2 3 6 3 8 5 1 1 2 2 2 3 3 1 3 5 4 4 2 3 8 6 10 11 8 8 5 7 6 6 7 12 8 1 5 5 8 13 15 18 17 18 17
18 18 18 18 18 17 17 17 16 16 16 16 17 17 17 17 16 16 16 15 15 15 15 15 14 13 13 12 11 11 7 3 2 5 5 7 6 4 4 4 4 3 1 0 0 1 2 5 6 3 4 3 1 3 0 3 0 3 3 4 2 5 4 4 5 9 8 9 12 10 7 5 7 4 4 5 8 10 4 2 7 5 10 15 16 18 18 18
18 18 18 18 18 18 17 18 17 16 16 17 17 17 17 17 17 16 15 15 15 15 14 14 13 12 12 11 10 8 2 2 1 2 2 2 5 4 5 6 1 0 1 2 2 2 3 6 7 3 3 3 2 0 1 4 1 2 2 3 3 3 2 6 6 8 11 8 9 8 5 8 4 4 3 5 7 9 7 1 8 6 7 15 19 19 18 18
19 19 19 19 19 18 18 18 18 17 16 17 16 17 17 17 17 17 15 15 15 14 13 14 13 12 10 9 9 4 2 3 1 1 2 6 4 4 6 4 2 0 0 1 3 3 3 5 3 1 1 2 1 1 3 3 3 1 4 3 4 3 4 8 10 11 7 9 6 5 6 6 4 1 4 2 3 2 4 8 3 4 12 16 17 20 17 19
19 19 19 19 19 19 19 18 18 18 17 17 17 17 17 17 17 16 16 15 14 13 13 13 12 11 9 9 4 1 1 2 1 2 5 6 5 4 5 4 5 0 2 4 1 6 5 5 1 2 2 1 1 2 4 3 4 4 6 6 7 7 6 4 8 4 6 4 5 6 3 3 3 4 2 2 2 1 6 5 3 7 1 1 12 17 16 18
19 19 19 19 20 20 19 19 19 18 18 17 17 18 17 17 17 16 15 14 14 13 12 12 11 11 11 9 0 1 1 5 2 4 7 6 6 4 5 6 4 2 2 4 3 2 4 4 2 1 2 2 3 1 6 4 4 7 8 5 11 7 8 8 6 9 5 3 6 5 4 4 4 7 0 3 1 3 0 5 5 8 13 9 11 4 18 21
20 20 20 20 21 20 19 19 19 19 18 18 17 18 17 17 17 16 15 15 14 12 11 10 9 9 9 2 1 1 1 5 8 3 10 8 6 7 5 3 3 1 2 4 3 5 4 4 2 2 2 2 3 2 3 4 2 6 8 2 5 5 5 5 5 4 4 4 5 5 6 6 4 5 2 3 2 1 3 3 4 6 11 9 10 3 12 8
20 20 20 21 21 20 20 20 20 19 18 18 18 18 18 17 17 15 15 13 13 12 10 9 8 6 2 1 1 4 3 5 6 7 8 7 7 5 4 1 3 3 3 3 3 5 2 2 3 0 2 4 2 6 5 3 4 2 4 4 3 4 4 4 1 1 2 3 1 7 6 9 6 5 4 2 3 4 6 6 6 1 8 9 8 10 4 9
20 20 20 21 20 20 21 20 20 19 19 18 18 19 19 18 17 16 14 12 11 10 10 8 6 3 0 1 2 3 5 4 5 7 9 9 7 5 4 7 2 2 2 5 2 1 1 3 5 3 1 0 4 4 4 2 3 6 5 4 4 4 3 2 3 4 3 3 5 2 5 7 10 5 4 5 3 3 5 4 4 5 4 7 8 10 10 3
20 20 21 21 22 21 21 21 20 20 19 19 19 19 19 18 17 15 13 11 9 9 6 7 4 3 1 0 1 3 5 8 4 6 10 9 7 5 6 5 4 2 4 8 3 1 2 4 3 2 2 1 4 7 6 2 5 6 6 4 4 6 4 4 6 7 3 3 1 4 9 7 7 4 6 1 2 0 3 2 5 7 8 3 4 9 5 7
20 21 21 21 22 22 22 22 21 21 20 20 19 20 19 19 18 15 13 10 8 4 5 6 2 1 0 0 3 7 4 4 6 6 9 9 6 10 8 8 4 5 3 3 3 3 3 1 4 3 1 1 3 5 4 7 7 7 5 7 7 6 6 5 4 4 4 3 3 1 5 11 6 6 7 13 4 3 1 1 3 5 9 8 10 8 6 8
21 21 22 22 22 23 22 22 21 21 21 20 21 20 20 19 18 15 11 9 5 5 3 2 1 1 1 4 7 8 2 2 7 8 5 7 3 4 7 5 7 7 6 2 3 3 4 1 2 4 1 1 2 0 4 5 6 7 5 4 9 7 8 8 2 3 4 4 2 4 6 8 10 12 7 10 14 4 5 1 1 5 7 9 9 8 9 9
21 21 22 23 22 22 22 21 21 22 21 21 22 21 20 19 17 15 11 10 8 5 3 4 1 1 1 4 5 2 4 3 7 4 9 7 3 6 5 5 4 4 3 4 5 4 3 2 0 1 0 0 2 2 5 4 3 5 7 4 2 5 5 7 1 4 6 3 1 4 6 8 9 12 10 10 9 6 4 4 4 2 5 5 5 9 10 7
21 22 22 23 23 23 22 22 22 22 22 22 23 23 20 21 18 15 11 9 8 6 3 3 0 1 2 6 5 9 10 3 5 11 11 7 8 3 5 8 5 6 5 4 2 2 3 1 1 1 2 2 0 2 4 3 2 2 6 6 5 1 7 12 3 2 8 5 6 5 5 10 13 10 10 10 8 4 3 6 4 3 4 5 4 12 13 15
22 22 23 23 23 23 23 23 23 23 22 24 24 24 23 19 15 12 9 8 5 3 2 0 0 1 1 5 3 7 1 2 4 6 4 3 4 4 1 6 8 7 4 4 5 1 1 2 1 4 0 3 1 2 4 6 6 4 1 4 7 1 7 7 7 4 9 11 1 9 8 4 7 7 10 9 8 7 4 5 4 4 3 4 4 10 13 10
22 23 23 23 24 23 24 24 23 23 20 23 27 24 21 16 7 8 10 5 1 3 2 0 2 1 2 3 4 2 1 4 5 1 3 4 3 2 2 1 1 2 3 3 5 3 1 1 2 2 1 0 1 3 4 5 4 4 1 4 4 5 4 5 8 4 5 6 3 8 7 7 5 6 8 10 8 9 5 6 6 5 4 5 6 6 11 14
22 23 23 23 24 24 24 24 24 25 21 24 23 21 18 18 8 5 3 4 2 2 1 0 1 1 6 3 2 2 2 1 2 4 3 1 3 3 3 0 2 1 2 4 4 2 2 1 1 3 3 4 3 4 1 3 2 4 5 4 7 3 5 8 4 5 5 2 1 2 7 8 9 6 7 9 8 7 9 8 7 6 5 4 7 6 7 9
23 23 24 24 24 24 24 24 24 24 21 22 20 19 14 3 1 1 2 0 1 2 2 1 1 2 1 4 6 4 4 5 2 1 0 1 0 2 1 0 0 1 1 2 4 4 2 2 5 3 3 4 2 2 2 5 4 5 5 5 4 5 7 6 6 4 3 2 4 3 3 7 9 9 11 9 9 6 11 8 6 5 4 2 6 7 7 8
23 24 24 25 25 24 25 24 23 23 21 17 11 8 4 6 5 1 2 2 2 4 5 6 6 4 8 8 2 2 2 5 3 3 1 1 3 1 4 1 3 5 3 0 3 1 1 2 0 4 5 3 3 3 3 5 4 5 5 3 4 4 6 4 6 7 4 2 1 1 3 5 6 6 10 9 9 6 8 8 7 7 6 6 4 8 10 9
23 23 24 25 26 26 25 25 23 20 19 8 6 2 2 3 2 2 4 8 9 6 8 11 8 6 9 4 7 5 3 2 2 2 2 1 4 2 1 2 3 4 2 2 1 2 5 4 4 5 7 3 4 4 4 7 7 7 5 4 7 4 6 5 4 6 6 5 3 3 4 2 4 4 4 4 4 6 7 9 9 8 9 7 6 5 10 10
23 23 25 26 27 27 27 26 25 20 15 2 0 2 2 2 2 4 0 6 5 7 8 11 6 9 9 13 9 3 4 1 7 2 1 2 1 2 2 1 1 4 2 3 4 5 4 4 7 9 6 3 3 3 3 3 7 9 3 5 6 7 4 6 5 5 6 7 6 6 5 6 6 5 5 4 3 2 4 5 7 8 9 9 8 4 4 6
22 23 24 26 27 26 25 25 23 21 0 1 2 1 2 3 1 1 1 1 7 2 4 5 3 7 4 4 1 4 3 0 2 2 2 2 1 3 0 2 3 1 2 1 1 1 4 4 8 7 2 0 2 3 4 4 3 4 1 3 4 4 2 5 8 5 8 2 5 5 3 7 5 4 5 4 6 6 6 5 5 6 8 10 11 9 6 4
21 23 24 25 27 27 29 25 26 4 1 4 3 3 4 2 2 4 2 2 3 7 3 3 3 3 4 1 1 2 2 2 2 4 1 2 2 3 2 0 1 1 2 3 4 4 6 9 3 3 3 2 4 3 3 3 6 2 2 3 2 2 3 2 4 5 4 7 4 7 8 6 6 8 10 13 13 16 14 16 18 16 10 5 9 12 8 5
22 22 24 24 25 29 27 26 3 3 9 1 3 4 2 1 2 5 2 3 1 5 4 0 2 1 2 2 1 2 1 1 5 2 1 4 2 3 1 1 0 1 3 3 0 1 7 8 4 3 4 2 2 5 4 2 2 3 4 4 4 3 3 5 5 8 7 7 4 8 6 4 6 7 11 10 12 13 11 14 14 13 14 8 3 9 10 1
21 22 23 23 26 27 28 4 2 6 7 2 2 4 2 4 3 2 3 2 2 4 0 1 1 0 0 0 1 3 3 1 5 3 1 2 3 3 1 1 1 2 3 1 1 2 4 4 2 3 4 4 2 4 4 3 3 0 3 2 3 1 4 5 6 6 4 1 5 3 1 5 6 7 10 8 11 10 11 15 13 12 13 13 8 2 1 3
20 21 22 23 23 22 9 1 4 8 1 2 7 7 3 4 2 2 2 2 2 0 2 1 2 0 2 1 1 2 1 3 4 2 1 3 2 0 2 4 2 1 2 1 4 2 2 3 4 3 3 3 2 5 3 5 4 2 3 0 2 4 4 2 2 1 4 3 6 2 2 2 3 5 4 6 10 9 13 15 14 12 13 13 11 10 10 8
21 21 22 22 22 15 4 6 9 4 2 2 5 6 7 4 2 4 2 1 1 1 1 2 0 1 1 2 5 1 4 3 2 2 2 1 6 2 1 1 1 3 3 1 2 6 1 4 0 0 3 4 6 5 4 3 3 3 4 3 2 1 0 2 1 4 3 1 7 7 3 1 1 2 5 7 10 10 12 13 13 13 12 13 12 12 13 14
20 21 21 20 21 22 3 5 2 4 3 5 6 6 5 2 5 3 2 2 1 2 2 1 2 1 4 3 1 0 2 1 1 2 2 2 1 4 1 1 2 0 2 3 4 3 2 3 2 3 1 2 4 5 3 5 1 3 3 1 1 1 1 0 1 1 2 2 4 6 1 1 2 5 7 6 6 10 11 12 12 14 12 11 10 10 13 14
21 21 21 20 14 2 2 1 5 8 7 7 6 6 2 4 2 1 1 1 1 0 1 2 2 3 3 3 2 3 3 3 2 1 2 1 3 4 1 0 1 2 3 4 1 6 3 5 6 2 1 0 3 5 2 1 4 1 2 0 3 4 3 3 0 1 2 0 5 7 3 4 1 5 6 5 4 5 11 9 10 14 11 9 8 10 12 11
20 20 19 16 4 3 2 3 9 7 7 5 5 3 3 4 2 2 1 1 1 1 1 3 1 1 3 3 3 4 2 3 5 3 3 4 2 4 3 2 7 4 3 5 4 6 7 3 1 2 2 1 2 4 3 1 3 1 0 1 2 3 7 3 4 3 2 2 2 2 1 4 1 2 4 4 4 8 6 10 10 13 9 10 5 8 12 10
22 22 22 11 7 3 3 3 1 4 6 6 4 3 3 1 3 2 0 3 1 4 2 2 2 1 3 0 2 1 1 3 3 2 2 2 2 4 2 2 1 3 3 1 3 5 4 3 3 6 4 6 2 4 5 6 7 5 3 5 2 2 4 1 6 1 0 4 2 0 3 4 8 2 5 7 8 8 8 9 10 13 5 3 7 11 11 11
23 23 25 8 7 5 8 10 7 7 7 5 2 2 2 3 2 2 1 3 1 1 2 1 1 3 1 2 2 1 2 4 4 3 6 2 5 4 1 3 1 3 2 2 1 5 5 3 4 7 2 3 2 3 4 6 4 3 2 3 3 1 1 0 2 1 3 5 6 3 3 4 5 3 8 6 7 6 10 13 13 13 4 8 14 12 12 12
23 23 10 3 7 9 4 3 6 4 6 3 2 4 3 4 1 2 1 1 1 0 3 0 3 3 3 2 3 2 4 2 7 4 6 3 5 2 5 6 6 4 2 0 1 0 2 3 3 4 2 6 5 4 2 2 3 3 2 2 5 4 2 1 1 1 1 4 7 4 2 2 4 2 6 5 7 8 7 8 9 9 1 6 13 13 13 11
25 17 8 3 4 9 12 9 7 4 2 3 6 4 3 1 2 0 1 1 2 1 2 3 0 2 4 5 1 3 1 2 5 4 7 5 4 2 3 3 4 3 1 3 1 1 1 2 4 1 2 3 5 5 3 2 2 2 2 4 5 1 5 1 4 4 2 1 4 5 1 2 7 3 4 5 5 8 8 8 9 6 10 12 13 12 10 10
15 6 2 3 3 4 8 7 4 2 1 6 5 3 2 1 1 0 0 2 1 1 4 4 4 6 2 2 2 3 6 2 4 4 3 5 1 4 5 2 2 3 2 1 1 0 3 0 6 9 5 4 5 7 4 3 1 4 2 1 3 3 6 2 1 0 3 2 1 2 3 3 3 3 9 7 4 5 9 8 5 9 10 13 13 12 10 8
8 9 3 3 3 3 5 5 4 3 3 5 5 1 3 1 0 2 2 1 1 1 2 2 3 1 2 2 2 6 5 3 2 3 3 1 3 4 6 6 3 2 2 4 1 2 2 4 3 5 7 4 5 6 1 4 1 1 1 4 3 2 5 3 2 1 1 2 1 4 3 1 1 0 7 9 8 8 10 9 8 9 10 12 10 9 9 9
7 6 5 5 7 3 6 5 5 2 3 3 1 4 1 0 2 1 1 1 2 3 3 2 1 5 2 3 5 3 5 4 4 3 0 0 1 1 5 2 6 3 2 1 2 1 3 2 1 2 3 5 10 5 3 6 6 1 3 1 2 0 0 2 2 0 2 0 3 2 3 3 2 1 3 7 9 8 4 7 10 11 11 10 10 10 11 11
3 3 2 3 1 5 5 7 5 4 2 4 1 2 2 1 1 1 3 5 1 2 3 0 1 2 2 2 1 2 3 2 1 1 1 1 1 0 3 1 2 2 3 4 4 0 1 2 2 3 4 5 4 6 2 6 8 2 3 3 1 3 0 2 1 2 4 1 2 0 1 1 4 3 5 5 8 8 7 9 10 10 10 8 8 9 10 10
3 2 2 2 1 6 6 5 4 3 2 1 1 2 2 1 1 1 1 3 1 3 0 1 0 1 2 0 1 1 2 1 0 0 1 1 1 3 4 2 2 0 5 4 3 2 0 1 1 3 5 3 3 4 3 2 2 6 7 4 5 1 1 2 1 1 3 3 2 3 1 2 2 3 5 7 6 6 7 6 6 8 9 9 8 8 8 9
2 1 4 2 3 4 7 5 2 0 1 2 1 2 1 1 2 2 2 3 1 1 2 2 2 1 2 2 2 1 0 1 1 1 2 3 2 1 4 5 1 0 1 3 5 1 1 1 1 3 4 5 1 3 7 5 1 2 1 2 3 2 1 1 1 2 1 3 3 5 2 2 2 2 5 6 5 5 6 4 4 5 7 7 7 8 8 8
1 1 2 1 3 4 5 1 1 1 1 0 2 1 1 1 1 1 0 0 4 1 2 3 0 2 1 1 1 0 1 1 1 2 2 3 2 2 4 1 2 1 2 0 1 1 2 2 2 0 0 2 4 8 9 5 1 5 5 4 1 1 3 3 2 2 2 1 3 4 5 1 3 2 2 4 5 4 3 3 5 5 5 5 6 6 6 7
0 4 4 4 1 6 4 1 2 2 1 3 3 1 0 0 1 2 2 0 1 2 1 1 3 2 0 1 0 0 1 2 2 2 2 1 4 9 6 4 5 3 3 1 1 1 3 3 2 2 1 2 4 6 5 8 4 5 4 4 4 3 3 3 1 3 4 2 3 0 2 2 1 2 2 3 4 4 4 4 5 5 4 5 7 7 8 8
2 3 5 3 1 5 3 0 2 3 3 4 2 2 1 1 1 1 0 1 1 1 1 0 3 1 2 1 1 0 1 1 1 2 2 3 4 6 7 3 4 1 1 1 2 2 1 1 2 1 1 1 2 3 6 6 5 2 1 4 3 3 2 1 2 2 4 1 2 6 5 4 2 1 2 4 5 7 7 8 5 5 4 4 6 5 5 6
3 3 3 5 3 3 1 4 1 1 1 2 1 4 3 0 2 3 2 1 1 3 1 0 0 2 1 0 1 1 0 1 0 1 3 4 4 4 7 6 4 3 1 4 5 3 4 1 1 1 2 2 0 1 2 3 3 4 1 4 5 6 5 2 1 2 2 2 3 2 3 3 3 1 2 3 4 6 7 6 7 5 4 7 7 7 7 7
2 1 4 2 2 1 1 1 1 1 1 1 3 3 1 0 2 2 3 0 2 1 1 2 0 4 1 2 2 3 4 1 1 1 0 2 2 2 2 3 4 3 1 1 4 4 1 2 2 1 4 5 2 3 3 1 2 3 4 4 4 4 4 4 4 4 2 1 4 2 4 5 1 4 3 5 3 4 6 7 6 5 5 6 6 6 6 6
0 1 1 2 5 1 2 2 3 2 1 2 0 1 1 2 2 0 2 1 0 1 0 0 1 1 0 4 0 2 1 1 3 2 1 2 3 3 6 3 5 5 8 6 5 4 3 4 3 6 4 3 3 2 2 2 1 1 2 3 4 4 3 6 2 2 1 6 2 2 4 4 1 2 3 3 4 4 4 4 4 3 4 4 4 5 6 7
2 1 2 2 1 2 3 4 3 4 2 2 2 0 2 2 1 1 2 1 1 0 2 2 4 1 4 3 2 1 1 1 1 0 3 2 3 6 4 4 3 4 5 1 1 3 4 2 0 3 1 1 3 3 4 1 1 0 0 2 3 4 6 5 1 0 3 2 5 2 3 3 3 3 3 3 3 3 3 3 3 3 3 4 5 6 6 6
2 2 1 1 0 2 2 4 3 3 4 1 1 1 1 3 2 1 3 0 1 0 1 1 2 5 4 4 3 1 1 1 1 2 0 3 1 2 3 4 2 4 3 0 1 2 5 1 1 2 2 1 1 0 3 4 2 2 2 2 3 4 3 4 3 2 5 4 4 6 4 3 3 3 4 2 2 2 1 1 3 5 3 3 4 4 4 5
1 1 2 4 1 2 3 2 1 2 2 2 0 2 1 1 3 0 1 1 0 1 2 4 1 1 3 4 4 2 3 4 3 2 2 0 6 0 2 1 1 1 1 1 2 0 3 2 5 2 1 1 2 4 2 1 1 1 3 2 2 3 3 2 2 1 5 5 3 4 3 1 4 4 2 1 0 0 2 5 4 2 3 3 2 3 3 4
2 1 1 0 3 3 2 2 3 0 1 3 0 4 1 1 0 2 1 1 1 0 1 4 4 2 1 3 3 3 6 5 5 6 6 2 2 2 1 4 1 1 1 1 1 1 3 2 1 2 1 1 3 4 4 3 1 1 1 3 0 2 2 1 2 2 3 3 2 3 1 2 4 2 1 0 2 2 2 2 3 2 1 1 1 2 3 3
1 2 1 2 1 3 1 2 3 2 1 2 2 2 1 4 2 2 1 2 1 1 4 5 4 4 0 0 2 3 5 5 6 6 6 6 5 5 4 6 4 2 1 1 1 3 3 5 3 1 1 2 3 6 3 1 2 3 3 6 5 1 2 1 0 1 1 4 4 2 1 2 3 2 3 0 1 1 2 1 2 1 1 1 1 2 3 3
Wind_Direction
352 351 350 349 346 343 340 338 333 332 331 330 329 326 325 326 326 327 330 331 331 331 329 328 328 327 329 327 328 329 334 332 344 353 335 247 160 185 270 288 227 251 292 50 8 20 342 337 334 333 330 86 252 177 238 206 174 131 219 197 244 197 226 204 244 238 254 291 286 331 337 326 320 331 308 323 340 354 303 19 86 48 41 114 97 130 135 141
350 350 350 347 345 342 339 337 333 330 330 328 326 325 324 324 326 326 327 330 331 328 326 324 322 323 325 327 327 331 336 313 323 291 246 190 151 246 264 258 240 263 33 41 19 18 344 316 322 354 326 199 256 203 152 270 165 175 244 182 245 187 228 243 274 281 294 283 293 308 323 327 315 335 314 336 334 339 278 320 124 84 96 103 116 127 137 143
351 349 347 346 344 340 339 336 332 330 328 327 326 324 324 323 324 324 327 330 330 328 324 318 319 321 321 326 326 333 350 309 297 281 289 168 165 209 262 263 221 267 91 237 207 189 213 264 284 341 281 212 281 235 189 258 8 230 191 245 242 219 232 212 236 262 271 270 296 316 314 341 297 3 312 2 325 354 28 105 10 68 119 127 135 141 147 150
349 347 345 343 342 340 338 334 331 329 328 327 325 325 323 322 322 323 326 329 332 328 322 316 314 318 318 323 334 330 312 307 349 267 306 170 167 202 247 257 201 5 95 149 187 207 238 265 275 206 238 176 281 84 180 254 162 259 181 176 228 245 234 252 256 248 263 282 296 299 312 320 309 317 7 329 25 357 354 213 156 163 167 145 152 154 155 155
348 346 344 343 341 339 336 334 331 330 328 327 326 324 323 322 321 323 324 331 334 329 320 313 313 313 318 322 330 3 352 48 279 238 232 180 177 205 247 277 263 254 202 271 328 278 274 278 291 309 107 222 296 109 249 264 212 292 210 192 205 262 251 253 244 251 259 278 289 301 326 305 305 12 334 50 61 45 300 307 320 201 166 158 158 163 160 160
348 347 346 343 341 339 337 333 333 328 328 326 325 324 322 321 320 321 326 330 332 328 320 313 310 315 317 319 324 269 62 79 249 239 202 167 179 219 246 271 276 212 15 358 8 306 312 323 79 10 351 70 239 203 272 226 173 247 277 262 247 236 238 268 278 237 218 273 300 307 271 290 356 315 247 19 130 231 272 331 293 147 157 183 170 158 164 164
347 346 345 344 342 340 337 334 331 329 327 326 324 323 321 320 318 320 323 327 329 326 321 312 311 317 328 318 207 98 107 250 271 253 144 168 196 204 230 257 285 320 35 336 317 350 327 316 53 278 272 1 308 263 267 261 185 209 247 233 250 250 239 241 240 268 282 230 276 271 301 315 316 322 195 299 182 195 253 298 311 98 93 85 9 294 173 173
347 346 345 344 342 340 339 335 331 329 326 325 323 322 320 318 317 317 321 327 327 321 317 316 316 322 349 343 57 358 65 258 239 199 171 174 200 213 223 272 246 277 322 244 278 308 318 336 49 341 101 82 245 306 292 332 238 205 245 253 261 253 246 253 258 288 318 303 264 335 332 304 281 270 323 268 257 123 20 11 43 129 111 114 133 353 317 212
346 344 344 343 342 341 339 335 332 329 325 324 323 321 319 317 315 315 318 324 324 315 314 318 327 323 339 48 100 1 284 235 184 180 158 180 208 218 146 257 171 197 233 272 233 246 290 277 358 111 287 337 359 344 342 15 341 4 279 279 302 279 269 256 274 246 305 303 350 338 314 307 300 312 295 212 118 117 65 41 55 75 143 138 147 144 181 299
345 343 342 341 340 340 338 336 333 329 327 325 323 321 316 315 312 312 315 322 321 313 313 318 327 340 17 82 48 44 262 168 151 163 178 191 197 182 208 233 173 207 285 268 317 351 340 298 310 266 165 314 345 313 328 71 309 287 280 266 260 287 316 272 332 309 315 308 313 338 306 308 306 28 262 68 66 57 63 68 98 143 182 145 158 177 178 177
344 342 341 341 340 340 339 336 333 331 328 325 323 319 315 312 308 308 312 316 316 304 319 323 339 336 325 5 77 268 249 130 198 173 189 194 179 169 224 234 212 213 219 270 279 306 268 7 313 326 52 229 339 315 336 243 301 304 317 299 328 325 332 327 346 328 15 322 292 316 298 287 290 299 263 216 242 219 83 99 128 155 195 150 189 182 159 91
342 341 341 340 339 339 337 336 334 331 329 326 322 318 313 309 306 307 310 310 301 276 315 320 7 289 260 101 182 227 230 198 165 194 194 182 184 207 209 213 204 211 219 257 299 302 317 326 37 46 295 338 338 307 302 321 335 311 335 1 322 346 350 329 309 300 346 268 261 285 323 305 301 269 305 307 289 303 87 326 126 160 161 173 202 171 152 171
340 339 339 339 338 338 337 336 334 332 330 327 321 315 312 307 304 301 300 300 260 279 294 283 209 269 38 352 235 235 227 258 180 201 211 197 223 235 218 210 208 224 201 186 263 270 281 277 44 8 258 3 274 119 284 327 309 337 355 18 343 352 336 292 285 269 291 260 260 73 278 265 283 282 282 283 299 317 316 310 267 155 168 193 190 135 164 169
339 338 339 338 338 337 336 335 334 332 330 326 320 314 310 304 298 297 290 272 267 258 155 170 197 257 108 248 279 242 262 156 190 203 224 196 195 245 253 258 247 230 259 232 249 237 231 241 115 204 211 115 283 283 346 326 348 360 311 22 330 355 284 286 338 308 297 256 199 142 240 271 273 277 281 274 268 300 306 299 282 143 170 201 187 154 157 207
339 338 338 337 337 336 335 334 333 332 330 325 319 314 306 300 299 296 282 271 254 213 132 135 207 79 16 276 257 277 268 222 165 208 211 157 197 246 226 242 251 241 234 223 229 257 247 28 69 33 285 241 12 22 333 359 336 346 31 319 335 103 273 289 316 232 248 284 147 164 237 247 256 262 270 269 285 312 293 285 273 259 166 198 176 148 170 185
338 338 337 337 336 335 335 334 333 332 329 324 320 311 303 295 296 282 266 242 243 182 201 32 163 124 271 298 280 327 345 162 243 235 258 195 183 229 196 178 221 241 269 274 230 231 275 100 145 196 253 7 43 67 16 18 345 2 119 283 287 234 266 318 291 219 215 243 213 175 232 280 287 250 256 261 265 264 236 265 273 260 227 185 192 152 168 189
337 336 336 335 335 334 334 333 333 331 328 325 320 308 297 289 282 277 264 248 216 191 164 151 132 152 39 243 311 324 214 236 238 284 252 204 175 212 188 333 63 302 200 281 256 257 302 58 298 25 349 200 92 72 28 16 342 318 337 243 253 259 275 277 286 305 235 209 248 215 227 230 236 299 264 262 265 275 261 239 236 221 210 178 189 176 162 179
335 335 336 334 334 334 333 333 332 330 327 322 319 297 294 296 301 254 321 103 169 173 216 307 274 36 286 341 327 307 236 266 186 214 243 238 129 186 154 125 247 223 2 356 351 124 326 317 6 212 21 5 47 53 101 255 229 279 314 320 308 274 244 247 281 276 25 347 120 246 236 256 266 308 304 275 278 279 272 260 253 248 234 179 167 194 193 185
335 334 334 334 332 332 333 331 331 330 328 322 304 286 271 269 100 104 62 158 78 0 17 325 51 118 213 279 233 276 252 220 188 166 287 63 310 43 91 253 50 1 332 54 295 61 352 23 25 41 354 346 336 131 165 234 237 247 268 260 279 309 305 297 275 284 58 314 77 169 201 259 282 286 290 284 272 257 262 282 297 282 267 233 153 184 202 193
335 334 334 333 332 330 331 329 328 327 333 335 349 350 20 12 4 348 343 72 171 200 229 248 198 256 296 290 279 242 309 14 40 298 188 239 78 354 14 116 26 45 66 106 303 12 115 67 340 264 250 225 240 256 259 261 245 277 295 299 297 319 300 286 310 312 344 316 185 170 206 233 266 263 270 288 292 289 285 282 287 295 287 271 187 165 198 204
333 334 333 332 332 329 328 328 324 322 325 309 299 4 64 330 37 313 298 269 261 219 221 244 218 227 250 278 320 327 30 307 68 317 246 76 122 78 337 51 24 12 295 226 172 288 68 27 287 232 222 235 272 292 313 322 314 293 289 324 310 322 291 288 297 317 333 27 290 340 352 263 234 249 258 251 240 278 286 294 291 285 283 270 258 178 182 207
333 333 334 332 330 329 325 326 322 320 322 241 273 41 248 235 178 199 342 318 306 235 228 244 222 239 251 258 251 201 90 348 339 329 276 96 30 88 286 61 325 290 289 355 17 18 13 302 257 264 248 254 275 298 299 271 279 279 317 311 324 290 239 281 305 323 338 8 309 310 332 297 299 292 286 303 296 242 250 268 272 273 276 285 281 255 189 178
333 333 333 332 330 327 327 320 321 322 344 80 4 288 261 265 48 65 91 250 287 259 230 249 273 254 252 253 238 59 345 75 272 240 246 100 23 81 123 48 357 254 325 74 181 72 346 294 250 249 253 307 310 303 296 303 292 264 340 348 284 262 21 323 305 344 340 37 296 298 309 298 314 318 328 344 11 333 344 325 300 278 276 279 276 269 257 187
332 333 333 332 329 328 324 322 311 315 312 301 258 230 260 293 94 53 69 227 290 313 213 231 218 225 177 141 224 106 102 283 345 288 213 85 132 205 71 123 55 57 284 222 172 172 218 241 238 212 244 235 270 281 291 294 296 279 233 244 247 301 288 200 275 329 324 339 3 353 351 337 354 15 4 351 3 27 8 18 11 357 334 281 283 288 271 212
331 333 333 331 331 327 322 315 342 358 308 250 213 262 305 37 80 135 97 337 352 276 244 277 193 30 243 300 294 79 207 313 242 216 238 110 182 41 171 233 100 294 259 293 125 338 290 264 236 263 271 268 252 296 270 140 292 318 263 221 219 228 330 338 350 10 15 337 334 41 0 319 317 19 18 4 24 30 10 19 358 357 356 336 310 283 290 304
331 331 332 332 330 332 314 324 347 337 340 49 328 312 341 3 30 96 94 81 326 268 337 236 351 287 116 332 110 128 61 286 236 237 70 170 165 116 57 334 148 264 271 181 165 190 219 272 157 205 227 251 260 253 263 197 223 79 271 224 255 296 21 20 6 32 353 343 283 65 81 269 328 32 14 10 46 25 16 14 350 1 3 350 330 325 250 125
328 328 331 331 330 338 359 5 321 303 54 329 337 327 319 338 358 61 57 358 12 16 127 246 46 6 78 258 121 63 35 272 300 324 110 217 152 19 114 264 4 320 308 71 41 308 349 320 332 351 315 288 277 282 246 142 115 247 238 51 32 35 36 357 13 85 239 274 292 10 139 217 303 346 359 328 45 13 19 12 358 4 10 5 355 17 31 59
327 327 329 330 326 330 240 296 335 346 255 246 312 317 321 326 57 48 83 86 333 342 46 310 147 241 59 287 4 140 206 229 30 289 192 221 83 356 98 215 340 257 284 69 253 254 128 304 210 279 265 242 238 209 227 145 149 212 252 210 253 106 178 332 357 292 247 278 299 310 344 40 311 278 340 358 43 1 4 351 351 359 13 4 13 21 43 47
323 324 327 326 325 308 262 194 268 263 254 293 304 309 312 42 77 105 125 109 234 45 188 34 263 355 315 347 30 246 320 339 15 250 87 18 62 138 57 250 164 280 46 117 206 292 275 224 220 227 164 338 259 264 206 158 333 277 241 59 137 104 44 291 219 306 318 102 267 284 305 160 275 322 355 339 41 6 343 331 335 337 15 15 8 25 39 43
321 322 324 325 323 294 123 224 237 244 289 290 296 306 5 52 35 45 356 86 107 312 327 277 55 272 21 50 336 317 17 321 332 326 59 96 331 25 37 285 114 31 336 5 211 216 242 257 223 210 191 222 267 281 248 284 228 277 60 14 0 34 10 350 69 128 66 307 259 252 305 134 349 8 346 7 1 4 341 315 340 331 347 26 10 33 53 36
317 317 320 322 290 283 318 296 249 239 257 289 296 10 67 36 102 104 75 233 35 278 329 7 303 2 31 55 350 312 25 345 355 17 351 10 346 25 4 13 24 43 25 358 337 321 328 330 32 271 84 26 20 1 357 351 297 150 99 125 38 340 10 24 343 30 156 273 256 347 109 66 132 340 22 347 356 50 346 317 331 309 290 34 324 59 68 66
317 315 315 310 218 268 183 212 255 331 330 320 20 45 68 30 13 84 217 351 70 301 17 305 312 0 352 288 96 353 306 341 348 33 357 320 0 25 326 117 26 31 342 339 301 331 341 348 295 336 350 58 353 55 325 348 13 51 87 53 115 272 32 334 11 4 183 193 251 53 339 42 44 40 324 6 3 23 333 291 288 294 309 93 65 59 63 70
317 314 315 290 199 196 237 251 308 308 319 343 62 54 60 92 72 285 354 333 199 146 313 156 292 315 287 36 326 343 303 57 331 26 356 337 83 13 343 86 124 128 309 263 325 14 287 278 4 335 354 26 38 72 328 356 346 15 126 126 77 55 39 266 271 224 312 292 271 293 46 87 152 118 16 9 7 349 317 306 307 300 296 40 56 50 56 59
316 314 314 202 190 214 234 232 254 309 321 18 72 35 45 59 112 326 69 24 163 251 284 318 318 347 43 41 15 23 25 359 37 328 16 344 48 27 340 360 22 6 83 239 61 175 44 349 317 354 338 330 1 0 309 199 253 256 148 116 169 141 162 215 206 133 210 228 286 306 91 192 128 351 345 16 17 351 300 289 292 285 291 47 55 55 49 54
316 300 263 249 232 238 234 240 258 281 336 53 50 82 85 294 234 312 354 308 310 357 327 326 229 54 0 33 343 52 63 306 5 17 37 30 0 358 356 323 358 67 129 58 288 76 243 214 250 278 255 318 1 330 322 4 2 291 130 92 62 249 146 150 197 165 212 343 335 8 87 33 102 170 14 15 21 295 281 291 281 11 25 39 45 43 41 43
320 313 238 246 202 254 196 215 216 201 81 50 75 46 107 185 278 66 101 189 300 60 298 2 45 59 353 342 24 3 343 105 318 50 22 17 255 8 313 312 19 55 88 109 269 257 17 320 304 339 357 36 3 343 345 39 123 271 52 315 222 196 110 106 13 286 95 58 7 81 71 360 140 128 357 2 8 290 274 277 338 29 33 40 37 32 33 39
338 329 13 290 259 204 175 180 160 111 60 84 87 30 212 310 190 165 269 130 223 148 60 83 335 81 357 342 351 353 339 57 351 82 324 329 345 345 316 313 298 26 103 133 324 179 149 247 339 26 344 325 352 323 227 59 261 72 50 246 291 106 121 129 196 308 95 121 347 33 60 356 18 64 315 352 356 355 356 6 19 26 33 44 39 30 28 32
324 314 255 260 244 200 148 156 117 58 75 76 87 207 235 121 285 151 197 43 17 27 86 95 284 85 10 53 339 354 338 77 314 52 262 253 228 254 281 277 307 40 26 75 137 231 108 357 290 7 283 304 337 17 5 338 6 136 193 265 95 276 285 315 92 13 99 165 115 124 96 76 23 189 319 353 342 353 17 9 26 31 35 36 34 33 39 42
282 317 358 264 259 143 137 124 91 80 56 50 305 21 271 189 230 187 204 142 127 111 75 298 140 328 123 45 259 335 5 31 308 89 74 1 61 357 288 217 313 38 76 83 68 217 71 152 303 326 20 309 339 33 26 308 323 353 14 20 7 100 152 86 201 180 110 196 75 88 72 56 2 0 348 2 324 354 17 24 19 19 23 30 30 33 41 43
323 18 297 275 49 106 119 86 60 45 71 83 228 209 238 249 273 282 277 126 326 81 234 111 26 82 17 213 141 4 301 22 107 306 108 267 228 270 251 237 224 5 82 67 123 139 103 109 221 283 326 43 14 358 329 284 318 341 24 350 358 355 231 109 24 74 154 163 145 155 22 324 335 326 316 337 355 1 18 17 13 15 13 16 28 37 40 43
291 122 266 272 129 104 66 54 52 71 207 259 181 228 315 209 190 250 313 38 109 162 144 161 163 114 200 45 348 299 340 351 49 38 4 307 155 330 248 213 326 150 50 27 48 8 78 37 171 304 22 54 120 297 328 339 16 102 131 28 268 348 50 74 274 357 37 95 157 119 194 207 254 322 312 334 342 359 19 12 3 16 20 19 24 34 38 42
358 348 280 296 174 74 75 43 284 211 124 141 283 187 227 335 48 257 74 320 98 129 64 109 306 131 122 138 199 343 85 43 78 80 294 213 267 174 270 271 97 220 114 149 192 240 136 170 93 24 313 54 301 299 301 343 37 101 97 357 24 138 106 95 118 243 45 324 96 124 128 83 347 299 302 321 321 332 353 11 9 6 12 20 31 41 44 40
61 226 253 285 245 92 71 18 290 35 264 234 243 279 204 266 131 227 111 153 93 111 81 91 195 110 243 138 203 103 139 58 44 222 207 264 278 217 238 295 151 74 87 338 28 294 119 69 53 36 24 302 282 268 287 4 21 20 2 6 29 0 266 170 174 183 122 316 70 25 73 142 79 29 344 302 310 325 337 3 8 4 4 20 31 32 31 25
292 289 315 308 62 93 83 153 312 304 289 316 350 313 62 195 114 357 37 322 124 1 157 230 4 128 162 177 104 304 152 72 0 31 344 347 295 264 241 73 159 80 92 223 131 233 69 313 110 117 82 292 328 348 354 343 37 63 319 311 307 326 2 256 95 57 81 258 182 128 167 170 148 26 324 319 340 348 346 338 355 359 6 28 36 38 34 23
298 260 236 294 358 71 177 197 153 208 302 306 318 327 316 330 197 188 156 188 113 159 100 314 167 127 74 174 127 344 8 142 200 214 187 204 236 279 293 128 134 122 156 207 145 102 82 286 95 120 143 141 334 23 318 320 311 292 307 330 345 21 345 22 186 18 94 303 95 86 120 116 158 79 331 319 337 341 335 332 335 352 12 23 30 27 24 21
19 44 301 340 9 48 275 315 197 158 146 17 10 279 210 250 316 1 88 305 172 93 138 148 7 105 112 60 28 29 20 8 122 242 219 308 291 298 303 130 136 135 161 37 85 80 100 23 71 147 140 152 191 205 248 119 0 49 304 359 337 349 14 92 93 84 142 177 62 315 143 137 13 345 331 323 325 319 317 329 334 346 19 31 30 26 14 9
314 102 297 332 339 22 251 323 10 27 276 168 178 280 277 187 215 348 343 85 258 146 31 127 188 92 333 74 164 63 306 31 28 86 243 256 258 253 291 272 131 122 104 93 93 76 69 61 23 79 78 167 186 197 227 156 156 264 38 342 354 23 18 60 88 188 177 91 27 309 100 113 231 267 281 293 308 306 309 312 332 13 43 36 30 24 5 4
55 271 101 204 137 251 16 317 343 326 315 110 258 165 264 302 139 211 346 229 331 98 105 332 32 89 162 153 133 69 337 27 9 282 306 256 325 316 344 1 114 153 125 21 65 108 127 109 318 78 91 184 201 241 242 205 169 212 65 16 14 26 53 72 36 287 106 127 175 211 112 122 228 232 239 251 252 269 295 300 318 23 42 31 31 24 8 356
177 264 235 43 92 266 190 235 297 264 320 244 250 254 288 299 345 207 162 283 11 353 112 130 98 127 147 136 104 162 151 61 307 303 222 295 322 315 343 354 46 116 99 107 12 129 88 30 182 114 131 182 274 123 59 56 10 17 356 353 23 62 103 105 83 30 94 128 144 151 148 168 211 222 228 239 240 221 256 284 37 49 30 27 34 18 5 348
12 66 304 354 55 272 277 313 279 312 291 295 354 273 193 213 163 283 329 126 6 301 8 99 228 287 141 125 123 125 200 167 177 204 262 191 316 288 259 197 235 318 126 161 161 320 101 243 157 109 87 267 256 278 312 55 61 53 320 342 33 76 69 70 88 43 75 68 78 114 111 245 258 196 202 267 272 227 34 34 57 68 47 27 31 1 335 330
251 226 188 9 347 278 318 330 347 52 29 328 101 279 306 150 195 204 219 116 134 226 109 161 194 161 21 99 121 164 193 172 185 203 217 191 241 230 86 287 63 262 328 49 54 346 77 214 80 95 109 285 231 231 239 236 106 58 304 301 272 74 81 265 96 200 115 161 126 101 62 262 275 263 257 35 36 40 52 24 72 81 57 46 11 327 302 302
338 291 79 109 252 281 304 299 308 62 348 232 179 258 329 274 265 125 28 321 132 134 158 161 185 106 43 47 239 213 206 183 205 220 218 221 213 250 223 248 255 193 223 182 190 131 150 134 154 133 115 259 217 186 203 296 318 325 269 227 206 193 168 134 309 335 218 145 111 141 229 216 212 168 121 278 335 285 52 127 114 115 248 207 225 262 267 275